Flag for Liberia Weather past 2 weeks in Monrovia, Liberia

Now
77 °F

Passing clouds.


Feels Like: 78 °F
Forecast: 76 / 82 °F
Wind: No wind

Location: Roberts Field

Current Time: Jul 3, 2015 at 12:06:51 AM

Latest Report: Jul 2, 2015 at 11:30 PM


Visibility: N/A

Pressure: 29.98 "Hg

Humidity: 94%

Dew point: 75 °F

Location of MonroviaLocation

Historic Weather in Monrovia — Graph

°F

Monrovia temperature yesterday

Maximum temperature yesterday: 82 °F (at 11:30 AM)
Minimum temperature yesterday: 75 °F (at 7:00 AM)
Average temperature yesterday: 79 °F

Past Weeks' High & Low Weather Summary

 TemperatureHumidityPressure
High86 °F (Jun 26, 12:30 PM)100% (Jun 23, 4:30 AM)30.12 "Hg (Jun 23, 4:30 AM)
Low73 °F (Jun 24, 4:30 AM)74% (Jun 18, 2:30 PM)29.89 "Hg (Jun 18, 3:00 AM)
Average78 °F90%29.99 "Hg
* Reported Jun 17 11:00 PM — Jul 2 11:00 PM, Monrovia, Weather by CustomWeather, © 2015

Note: Actual official high and low records may vary slightly from our data, if they occured in-between our weather recording intervals... More about our weather records

Advertising

Monrovia weather history for previous 24 hours

 ConditionsComfort  
Time TempWeatherWind HumidityBarometerVisibility
11:00 PM
Thu, Jul 2
77 °FPassing clouds.No wind94%29.98 "HgN/A
10:00 PM77 °FPassing clouds.No wind94%29.98 "HgN/A
9:30 PM77 °FPassing clouds.No wind94%29.98 "HgN/A
7:00 PM77 °FDrizzle. Partly sunny.6 mph94%29.92 "Hg6 mi
6:30 PM79 °FDrizzle. Partly sunny.5 mph89%29.92 "Hg6 mi
6:00 PM81 °FPartly sunny.8 mph84%29.92 "HgN/A
5:30 PM81 °FPartly sunny.9 mph84%29.92 "HgN/A
5:00 PM81 °FPartly sunny.7 mph84%29.92 "HgN/A
4:30 PM81 °FPartly sunny.5 mph84%29.92 "HgN/A
4:00 PM81 °FPartly sunny.13 mph89%29.92 "HgN/A
3:30 PM81 °FDrizzle. Partly sunny.9 mph89%29.95 "Hg6 mi
3:00 PM79 °FLight rain. Partly sunny.7 mph94%29.95 "Hg6 mi
2:30 PM79 °FRain. Partly sunny.9 mph94%29.95 "Hg4 mi
2:00 PM79 °FRain. Mostly cloudy.8 mph94%29.98 "Hg2 mi
1:30 PM82 °FPartly sunny.8 mph79%29.98 "Hg5 mi
1:00 PM82 °FPartly sunny.8 mph79%29.98 "HgN/A
12:30 PM82 °FPartly sunny.10 mph84%30.01 "HgN/A
12:00 PM82 °FPartly sunny.7 mph79%30.01 "HgN/A
11:30 AM82 °FPartly sunny.10 mph79%30.01 "HgN/A
11:00 AM81 °FPartly sunny.7 mph89%30.01 "HgN/A
10:30 AM81 °FPartly sunny.9 mph84%30.01 "HgN/A
10:00 AM81 °FPartly sunny.5 mph84%30.01 "HgN/A
9:30 AM79 °FPartly sunny.5 mph94%30.01 "HgN/A
9:00 AM79 °FPartly sunny.No wind89%30.01 "HgN/A
8:30 AM79 °FPartly sunny.No wind94%30.01 "Hg5 mi
8:00 AM77 °FPartly sunny.No wind94%30.01 "Hg5 mi
7:30 AM77 °FDrizzle. Partly sunny.No wind94%29.98 "Hg5 mi
7:00 AM75 °FPassing clouds.No wind94%29.98 "Hg4 mi
6:30 AM77 °FRain. Passing clouds.No wind94%29.98 "HgN/A
6:00 AM77 °FLight rain. Passing clouds.No wind94%29.98 "Hg4 mi
5:30 AM77 °FRain. Partly cloudy.No wind94%29.95 "Hg4 mi
4:30 AM77 °FRain. Partly cloudy.No wind94%29.95 "Hg4 mi
4:00 AM77 °FRain. Partly cloudy.No wind94%29.95 "Hg4 mi
3:30 AM77 °FRain. Partly cloudy.No wind94%29.95 "Hg4 mi
3:00 AM77 °FPassing clouds.No wind94%29.95 "HgN/A
2:30 AM77 °FPassing clouds.7 mph94%29.98 "HgN/A
2:00 AM77 °FPassing clouds.No wind94%29.98 "HgN/A
1:30 AM77 °FPassing clouds.No wind94%29.98 "HgN/A
1:00 AM77 °FPassing clouds.3 mph94%29.98 "HgN/A
12:30 AM77 °FPassing clouds.No wind94%29.98 "HgN/A
12:00 AM77 °FPassing clouds.No wind94%30.01 "HgN/A
Weather by CustomWeather, © 2015

See weather overviewHow to use our weather pages